FW3072 Weather Reports


time (UTC)temp
C
wind
direction
speed
KPH
gust
KPH
rain 1hr
cm
rain 24hr
cm
rain mn
cm
humidity
%
barometer
mb
20260506092201 7 102 3.2 6.4 0.08 2.90 1.02 93 1008.0
20260506091203 7 57 3.2 9.7 0.05 2.87 0.99 93 1008.0
20260506090202 7 77 4.8 11.3 0.00 2.82 0.94 93 1007.9
20260506085202 7 102 6.4 12.9 0.15 2.79 0.91 93 1007.8
20260506084201 7 102 6.4 12.9 0.13 2.77 0.89 93 1007.7
20260506083224 8 75 6.4 14.5 0.10 2.74 0.86 93 1007.6
20260506082223 8 87 4.8 11.3 0.05 2.69 0.81 93 1007.6
20260506081201 8 98 3.2 8.0 0.03 2.67 0.79 93 1007.6
20260506080203 8 89 4.8 11.3 0.00 2.64 0.76 93 1007.6
20260506073202 8 63 3.2 9.7 0.10 2.54 0.66 93 1007.7
20260506072223 8 96 0.0 0.0 0.05 2.49 0.61 93 1007.7
20260506071245 8 97 0.0 0.0 0.03 2.46 0.58 93 1007.7
20260506070202 8 97 0.0 1.6 0.00 2.44 0.56 93 1007.7
20260506062203 8 79 1.6 11.3 0.03 2.31 0.43 93 1007.7
20260506061202 8 86 4.8 12.9 0.03 2.31 0.43 93 1007.6
20260506060202 8 68 1.6 6.4 0.00 2.29 0.41 93 1008.1
20260506051202 8 99 0.0 0.0 0.05 2.26 0.28 92 1008.8
20260506050201 9 99 0.0 0.0 0.00 2.21 0.23 92 1008.8
20260506044201 8 99 0.0 3.2 0.13 2.11 0.13 92 1008.4
20260506043203 8 99 0.0 1.6 0.08 2.06 0.08 92 1008.4
20260506042201 9 99 0.0 3.2 0.03 2.01 0.03 92 1008.4
20260506041202 9 99 0.0 6.4 0.00 1.98 0.00 92 1008.2
20260506040202 8 301 0.0 0.0 0.00 1.98 0.00 92 1008.2
20260506035202 8 290 0.0 0.0 0.10 1.98 1.98 92 1008.0
20260506034201 8 290 0.0 0.0 0.10 1.98 1.98 92 1008.3
20260506033223 9 290 0.0 0.0 0.10 1.98 1.98 92 1008.3
20260506032201 9 290 0.0 0.0 0.10 1.98 1.98 92 1008.5
20260506031226 9 290 0.0 0.0 0.05 1.93 1.93 92 1008.6
20260506030202 9 290 0.0 0.0 0.03 1.91 1.91 92 1008.6
20260506025203 9 290 0.0 1.6 0.13 1.85 1.85 92 1008.5
20260506024202 9 290 0.0 0.0 0.10 1.83 1.83 92 1009.0
20260506023204 9 290 0.0 0.0 0.08 1.80 1.80 92 1008.8
20260506022201 9 290 0.0 0.0 0.05 1.78 1.78 92 1008.9
20260506021202 9 290 0.0 0.0 0.03 1.75 1.75 92 1008.8
20260506020201 9 290 0.0 0.0 0.03 1.75 1.75 92 1008.6
20260506015202 9 290 0.0 0.0 0.03 1.73 1.73 92 1008.8
20260506014222 9 290 0.0 0.0 0.03 1.73 1.73 92 1009.0
20260506013202 9 290 0.0 1.6 0.03 1.73 1.73 92 1009.0
20260506012202 9 290 0.0 0.0 0.00 1.70 1.70 92 1008.7
20260506011203 9 290 0.0 0.0 0.00 1.70 1.70 92 1008.6
20260506010202 9 290 0.0 0.0 0.00 1.70 1.70 92 1008.5
20260506005202 9 290 0.0 0.0 0.33 1.68 1.68 91 1008.6
20260506004224 9 290 0.0 0.0 0.28 1.63 1.63 91 1008.8
20260506003201 9 290 0.0 0.0 0.23 1.57 1.57 91 1008.8
20260506002225 9 290 0.0 3.2 0.15 1.50 1.50 91 1008.5
20260506001202 9 289 1.6 4.8 0.10 1.45 1.45 91 1008.5
20260506000205 9 290 0.0 4.8 0.00 1.35 1.35 91 1008.2
20260505235202 9 284 0.0 0.0 0.25 1.27 1.27 91 1008.4
20260505234204 9 284 0.0 0.0 0.18 1.19 1.19 91 1008.1
20260505233201 9 283 0.0 3.2 0.13 1.14 1.14 91 1008.2
20260505231202 9 331 0.0 3.2 0.05 1.07 1.07 90 1007.7
20260505230203 9 332 0.0 0.0 0.03 1.04 1.04 90 1007.8
20260505225201 9 332 0.0 3.2 0.28 0.99 0.99 90 1008.0
20260505224224 9 308 1.6 6.4 0.23 0.94 0.94 90 1008.1
20260505223225 10 307 1.6 8.0 0.18 0.89 0.89 90 1008.1
20260505222203 10 334 4.8 8.0 0.13 0.84 0.84 89 1008.1
20260505221202 10 315 3.2 6.4 0.08 0.79 0.79 89 1008.4
20260505220204 10 309 0.0 8.0 0.03 0.74 0.74 89 1007.8
20260505215201 10 309 3.2 11.3 0.46 0.66 0.66 88 1007.9
20260505214202 10 300 4.8 9.7 0.41 0.61 0.61 88 1007.9
20260505213224 10 293 4.8 12.9 0.33 0.53 0.53 87 1007.7
20260505212201 11 316 4.8 20.9 0.23 0.43 0.43 86 1007.4
20260505211202 12 295 12.9 27.4 0.13 0.33 0.33 87 1007.4
20260505210203 12 320 6.4 11.3 0.00 0.20 0.20 86 1007.0
20260505205201 12 248 4.8 12.9 0.03 0.13 0.13 85 1006.4
20260505204224 12 250 3.2 12.9 0.00 0.10 0.10 84 1006.1
20260505203202 13 257 3.2 9.7 0.00 0.10 0.10 82 1005.8
20260505202202 13 224 1.6 12.9 0.00 0.10 0.10 81 1005.8
20260505201203 13 263 3.2 14.5 0.00 0.10 0.10 81 1006.0
20260505200202 14 226 6.4 24.1 0.00 0.10 0.10 78 1005.9
20260505195222 15 225 4.8 11.3 0.00 0.10 0.10 74 1005.6
20260505194203 17 213 6.4 11.3 0.00 0.10 0.10 70 1005.1
20260505193201 18 267 8.0 27.4 0.00 0.10 0.10 70 1004.9
20260505192202 18 250 8.0 25.7 0.00 0.10 0.10 69 1004.7
20260505191202 19 285 16.1 35.4 0.00 0.10 0.10 66 1004.8
20260505190203 19 282 9.7 27.4 0.00 0.10 0.10 66 1004.7
20260505185203 19 273 11.3 37.0 0.00 0.10 0.10 66 1004.7
20260505184222 19 284 8.0 33.8 0.00 0.10 0.10 66 1004.5
20260505183202 19 293 17.7 40.2 0.00 0.10 0.10 67 1004.3
20260505182202 19 272 12.9 33.8 0.00 0.10 0.10 66 1004.5
20260505180201 19 281 19.3 37.0 0.00 0.10 0.10 67 1004.2
20260505175223 18 260 12.9 46.7 0.00 0.10 0.10 69 1004.2
20260505174201 19 235 14.5 43.5 0.00 0.10 0.10 67 1004.1
20260505173202 19 282 24.1 45.1 0.00 0.10 0.10 67 1004.1
20260505172203 19 278 16.1 46.7 0.00 0.10 0.10 68 1004.1
20260505171203 19 275 12.9 32.2 0.00 0.10 0.10 69 1004.1
20260505170202 18 256 11.3 30.6 0.00 0.10 0.10 69 1004.1
20260505165201 18 252 16.1 37.0 0.00 0.10 0.10 68 1004.2
20260505164202 18 271 19.3 43.5 0.00 0.10 0.10 68 1003.8
20260505163202 18 261 8.0 41.8 0.00 0.10 0.10 71 1003.8
20260505162202 18 284 14.5 30.6 0.00 0.10 0.10 70 1003.7
20260505161202 17 255 11.3 25.7 0.00 0.10 0.10 72 1003.5
20260505160202 17 234 11.3 33.8 0.00 0.10 0.10 70 1003.7
20260505153201 17 289 19.3 51.5 0.00 0.10 0.10 67 1003.8
20260505152202 18 254 11.3 30.6 0.00 0.10 0.10 68 1003.2
20260505151202 17 264 11.3 29.0 0.00 0.10 0.10 71 1002.9
20260505150224 17 268 9.7 27.4 0.00 0.10 0.10 72 1002.7
20260505140202 17 239 8.0 19.3 0.00 0.10 0.10 71 1002.7
20260505130202 16 276 9.7 22.5 0.00 0.10 0.10 72 1002.2
20260505124202 17 249 6.4 16.1 0.00 0.10 0.10 70 1001.6
20260505123201 17 231 6.4 17.7 0.00 0.10 0.10 71 1001.6
20260505122203 17 240 8.0 20.9 0.00 0.10 0.10 70 1001.5
20260505121201 17 254 9.7 25.7 0.00 0.10 0.10 70 1001.5
20260505120202 17 240 4.8 17.7 0.00 0.10 0.10 72 1001.2
20260505115203 17 228 3.2 16.1 0.00 0.10 0.10 71 1001.0
20260505114203 17 225 6.4 12.9 0.00 0.10 0.10 71 1000.9
20260505113203 17 236 6.4 16.1 0.00 0.10 0.10 72 1000.9
20260505112201 17 230 4.8 16.1 0.00 0.10 0.10 73 1000.9
20260505111202 17 227 4.8 17.7 0.00 0.10 0.10 74 1000.8
20260505110203 16 212 4.8 9.7 0.00 0.10 0.10 76 1000.6
20260505102202 15 174 4.8 8.0 0.00 0.10 0.10 83 1000.0
20260505101202 15 215 4.8 16.1 0.00 0.10 0.10 85 1000.0
20260505100203 14 218 3.2 8.0 0.00 0.10 0.10 88 1000.0
20260505095202 13 236 1.6 6.4 0.00 0.10 0.10 89 1000.0
20260505094202 13 172 0.0 0.0 0.00 0.10 0.10 90 1000.0